Regional Weather Roundup
Issued by NWS Wakefield, VA

Home | Current Version | Previous Version | Text Only | Print | Product List | Glossary On
Versions: 1 2 3 4 5 6 7 8 9 10 11 12 13 14 15 16 17 18 19 20 21 22 23 24 25 26 27 28 29 30 31 32 33 34 35 36 37 38 39 40 41 42 43 44 45 46 47 48 49 50
000
ASUS41 KAKQ 020914
RWRAKQ

REGIONAL WEATHER ROUNDUP
NATIONAL WEATHER SERVICE WAKEFIELD VA
500 AM EDT WED SEP 02 2015

Note: "fair" indicates few or no clouds below 12,000 feet with no
significant weather and/or obstructions to visibility. * = Denotes
station may not report precipitation (e.g., rain,snow,etc.),
thunder or fog.

VAZ042-051-052>054-056-021000-
NORTHERN VIRGINIA

CITY           SKY/WX    TMP DP  RH WIND       PRES   REMARKS
WASH NATIONAL  CLOUDY    77  72  84 S3        30.03S
DULLES         MOCLDY    72  66  81 NW3       30.04S
FORT BELVOIR   PTCLDY    71  69  95 CALM      30.03R FOG
QUANTICO       MOCLDY    74  70  87 CALM      30.03S
FREDERICKSBRG* MOCLDY    73  73 100 CALM      30.02S
STAFFORD*      MOCLDY    67  65  94 CALM      30.07S FOG
WARRENTON      FOG       67  67 100 CALM      30.04S VSB 1/2
CULPEPER*      MOCLDY    68  68 100 CALM      30.05S FOG
MANASSAS*      PTCLDY    70  70 100 CALM      30.04S
LEESBURG*      PTCLDY    70  70 100 W7        30.06S
WINCHESTER     PTCLDY    68  66  94 CALM      30.07S
FRONT ROYAL*   PTSUNNY   70  66  88 CALM      30.06S
LURAY*         FAIR      70  68  94 CALM      30.08S
$$

VAZ048-049-060>072-079>083-021000-
CENTRAL AND SOUTH CENTRAL VIRGINIA

CITY           SKY/WX    TMP DP  RH WIND       PRES   REMARKS
RICHMOND       CLOUDY    75  69  81 CALM      30.04S
CHESTERFIELD*  CLOUDY    75  61  60 W3        30.06R
PETERSBURG*    MOCLDY    71  71 100 CALM      30.05S
HANOVER        MOCLDY    70  69  97 CALM      30.05S FOG
TAPPAHANNOCK*  MOCLDY    70  67  90 CALM      30.04S FOG
QUINTON*       FAIR      69  69  99 CALM      30.04S
CHARLOTTSVILLE MOCLDY    73  69  87 CALM      30.05S FOG
GORDONSVILLE*  FAIR      69  68  96 CALM      30.04S
ORANGE*        MOCLDY    72  70  94 CALM      30.06S
LOUISA*        CLOUDY    72  70  94 CALM      30.04S
BUMPASS*       CLOUDY    71  69  94 CALM      30.04S
FARMVILLE*     MOCLDY    72  72 100 CALM      30.04S
CREWE*         FAIR     N/A N/A N/A CALM      30.05S
FORT PICKETT*  FAIR      71  69  95 CALM      30.05S
CHASE CITY*    FAIR      72  72 100 CALM      30.06S
CLARKSVILLE*   FAIR      70  70 100 CALM      30.05S
SOUTH HILL*    PTCLDY    67  66  98 CALM      30.11S
LAWRENCEVILLE* FAIR      66  66 100 CALM      30.05S
EMPORIA*         N/A     64  64 100 CALM      30.05F FOG
$$

VAZ088>098-021000-
SOUTHEAST VIRGINIA

CITY           SKY/WX    TMP DP  RH WIND       PRES   REMARKS
NORFOLK        PTCLDY    73  70  90 SW5       30.03F
VIRGINIA BEACH CLEAR     76  70  82 CALM      30.03S
NORFOLK NAVAL  PTCLDY    74  71  91 SW5       30.05S
WEST POINT*    MOCLDY    72  69  91 CALM      30.05S
SALUDA*        FAIR      72  70  92 NW3       30.03S
NEWPORT NEWS   PTCLDY    75  70  84 W6        30.04S
LANGLEY AFB    PTCLDY    74  72  93 W1        30.03S
FORT EUSTIS    PTCLDY    73 N/A N/A CALM      30.02S
WILLIAMSBURG*  PTCLDY    75  73  94 CALM      30.05S
HR EXEC AP*      N/A     64  63  94 CALM      30.06S
FRANKLIN*      CLEAR     67  67  98 CALM      30.05S
WAKEFIELD      CLEAR     70  68  93 CALM      30.04F FOG
$$

VAZ020-022-025-037-045-021000-
WEST CENTRAL AND SOUTHWEST VIRGINIA

CITY           SKY/WX    TMP DP  RH WIND       PRES   REMARKS
STAUNTON*      MOCLDY    71  67  89 CALM      30.12S
WAYNESBORO*    FAIR      71  65  84 CALM      30.12S
HOT SPRINGS VA CLOUDY    66  66  99 NW6       30.24R
LYNCHBURG      CLOUDY    69  68  96 CALM      30.09S
DANVILLE       CLOUDY    70  68  93 CALM      30.07S
SOUTH BOSTON*  PTSUNNY   69  67  95 CALM      30.06S
MARTINSVILLE   CLEAR     67  67 100 CALM      30.12S FOG
ROANOKE        MOCLDY    70  66  87 CALM      30.13S
BLACKSBURG     CLEAR     64  64 100 CALM      30.20S FOG
DUBLIN*        CLOUDY    64  64 100 CALM      30.19S FOG
MARION*        CLEAR     62  60  94 CALM      30.23R
HILLSVILLE*    CLEAR     65  64  99 CALM      30.19S FOG
RICHLANDS*     FAIR      65  38  37 SE3       30.21S
WISE*          CLEAR     66  64  94 CALM      30.22F
ABINGDON*      MOCLDY    66  64  93 CALM      30.18S
$$

MDZ021>025-VAZ099-100-021000-
SOUTHERN MARYLAND AND THE DELMARVA PENINSULA

CITY           SKY/WX    TMP DP  RH WIND       PRES   REMARKS
PATUXENT RIVER MOCLDY    73  69  87 W5        30.02R
BAY BRIDGE APT   N/A     75  75 100 CALM      30.02S
LEONARDTOWN    NOT AVBL
DOVER          PTCLDY    70  70 100 W2        30.00S
GEORGETOWN     PTCLDY    70  69  97 CALM      30.02S FOG
EASTON         NOT AVBL
CAMBRIDGE      MOCLDY    72  68  88 CALM      30.02S
SALISBURY      PTCLDY    69  68  96 S3        30.02S
OCEAN CITY     PTCLDY    74  70  87 W6        30.02R
WALLOPS ISLAND PTCLDY    73  72  96 SW3       30.03S
ACCOMACK*      MOCLDY    68  68 100 CALM      30.03S
$$

NCZ012>017-030>032-021000-
NORTH CENTRAL AND EASTERN NORTH CAROLINA

CITY           SKY/WX    TMP DP  RH WIND       PRES   REMARKS
ROANOKE RAPIDS FAIR      68  68 100 CALM      30.04F
RALEIGH        PTCLDY    70  68  93 CALM      30.07R
ELIZABETH CITY CLEAR     70  69  97 W6        30.04S FOG
AHOSKIE*       CLEAR     65  65  98 CALM      30.05F
EDENTON*       CLEAR     68  67  96 CALM      30.05R
CURRITUCK*     CLEAR     70  68  93 W3        30.05S
KILL DEVIL HLS CLEAR     73  71  91 CALM      30.02F FOG
MANTEO         CLEAR     71  71  99 CALM      30.04S FOG
CAPE HATTERAS  CLEAR     77  74  90 NW5       30.03F
TARBORO*       FAIR      66  65  97 CALM      30.05F
GOLDSBORO      CLEAR     70  70  99 CALM      30.04S
WASHINGTON     CLEAR     69  69  99 CALM      30.05S
GREENVILLE       N/A     70  70 100 CALM      30.07S FOG
NEW BERN       CLEAR     73  71  93 CALM      30.06S
WILMINGTON     CLEAR     75  72  90 W3        30.05F
$$

VAZ048-021000-
ELSEWHERE

CITY           SKY/WX    TMP DP  RH WIND       PRES   REMARKS
HARRISBURG PA  MOCLDY    69  65  86 CALM      30.03S
BALTIMORE      MOCLDY    73  69  87 CALM      30.02S
ANNAPOLIS      MOCLDY    77  75  93 N3        30.01S FOG
ANDREWS AFB    PTCLDY    69  68  94 CALM      30.02S
PHILADELPHIA   MOCLDY    74  70  87 CALM      30.03S FOG
HENDERSON NC   CLEAR     70  67  89 S3        30.06S
GREENSBORO     PTCLDY    71  67  87 CALM      30.08S
ROCKY MOUNT    CLEAR     68  67  96 CALM      30.05S FOG
$$

VAZ100-021000-
MARINE

STATION/POSITION TIME  TEMP    WIND        PRES    WAVE   SWELL
                       AIR SEA DIR/SP/G            HT/PER HT/PER
                 (UTC) (F)     (DEG/KT/KT) (MB)    (FT/S) (FT/S)
BRANDYWINE LGT   0800   75 76  320/  3/  4 1016.6F
CAPE MAY NJ      0800   72 81  100/  2/  3 1016.0F
LEWES DE         0800   74 76   CALM  /  1 1016.1F
15NM E FENWICK I 0850   78 79  150/  4/  4 1016.7R   2/ 8   2/ 8
OCEAN-CITY-INLET 0800   76 77  300/  6/  8 1015.4F
GOOSES REEF MD   0900   80 80  260/  4/  4 1017.5R
COVE POINT MD    0800   78     240/  1/  3 1017.1F
SOLOMONS ISLAND  0800      81                N/A
BISHOPS HEAD MD  0800   80 80  250/  6/  6 1015.7F
PINEY POINT MD   0805          290/  4/  5   N/A
POTOMAC MD       0900   78 80  280/  6/  8 1015.5S   1
CAMBRIDGE MD     0800   75 80  180/  2/  2 1015.6F
LEWISETTA VA     0800   76 81  240/  6/  8 1016.2F
RAPPAHANNOCK LGT 0800          220/  8/  8 1017.3F
STINGRAY PT      0900   78 81  270/  4/  6 1017.2S
YORK RVR RNG VA  0800   78     260/  7/  7 1016.3F
YORKTOWN VA      0800   76 80  250/  2/  3 1016.6S
JAMESTOWN VA     0900   77 81  260/  4/  6   N/A
DOMINION TERM VA 0800   77     270/  5/  6 1017.0S
KIPTOPEKE VA     0800      80  250/  6/  7   N/A
CHES BAY BRIDGE  0800   76 79  210/  7/  8 1016.6F
CAPE HENRY VA    0800   74     230/  7/  8   N/A
CHESAPEAKE LGHT  0800   77     240/  6/  6 1017.8S
WILLOUBY STN VA  0800   76     270/  3/  5 1017.9F
CAPE HENRY BUOY  0828      80                N/A     1/ 8
1ST LANDING BUOY 0900      79              1016.8S   1
CAPE CHARLES BUO 0826      79                N/A     1/ 8   2/ 8
OFFSHORE WE BUOY 0811      79                N/A     2/ 9   2/ 9
64NM E OF VA BCH 0850   77 79  300/  6/  6 1016.6F   2/ 7   2/ 7
DUCK PIER NC     0800   77 78  270/  5/  6 1016.3F
44100 DUCK FRF   0824      79                N/A     2/14
44056 DUCK FRF   0811      80                N/A     1/11
OREGON INLET NC  0800   76 82  290/  3/  4 1016.9F
HATTERAS NC      0800   79 82  280/  8/  9 1016.8F
DIAMOND SHLS NC  0850   80 83  300/  8/ 10 1017.0F   2/ 9   2/ 9
CAPE LOOKOUT NC  0900   79     280/  9/  9 1017.1F
$$



USA.gov is the U.S. government's official web portal to all federal, state and local government web resources and services.